Погода в Борисове

Погода в Борисове : погода сейчас, прогноз погоды и архив. Всё, что Вы хотите узнать о погоде в Борисове!

Хотите узнать прогноз погоды в Борисове? Тогда Вам сюда: Погода в Борисове

Поиск расширенной информации на нашем сайте:

Другие новости

Новости СМИ2

Главная страница сайта

Новости сайта

03.07.2017

Напоминаем, что на нашем специализированном сайте Метеоцентр.Азия вы можете получить высокодетализированные автоматические прогнозы погоды по пунктам России, СНГ и мира в авиационном формате (включающие направление и скорость ветра, видимость, явления погоды, количество и форму облачности, нижнюю и верхнюю границу облачности).


Погода в Борисове - сегодня

Время (UTC), дата Ветер
(°,м/с) 
Видим.   Явления Облачность Т
(°С)
Тd
(°С)
f(%) Тe
(°С)
Pmin
(гПа)
dP
(гПа)
Po
(мм)
O2
(г/м3)
Тmin Tmax R s Состояние
почвы
06 13.10.18 180 (Ю) 4800 м  дымка  ясно 
+5.1 +5 99 +6  1033.3  -0.8  757  299  +3         
09 13.10.18 180 (Ю) 17000 м    ясно 
+13.8 +9.4 75 +14  1032.8  0.2  758  289           
12 13.10.18 170 (Ю) 21000 м    3/0 верхняя 
[Ci fib]
+17.1 +9.7 62 +19  1032.2  -0.3  757  285           
15 13.10.18 200 (Ю) 13000 м    ясно 
+14.6 +9.8 73 +17  1031.2  -1.2  756  288           
18 13.10.18 220 (ЮЗ) 10 км    ясно 
+11 +9.6 91 +13  1031.3  -0.2  756  291    +17.6       
21 13.10.18 тихо ()   2300 м  дымка  ясно 
+6.8 +6.5 98 +7  1032.1  0.4  757  296           
00 14.10.18 тихо ()   0100 м  туман  ?/?  
+4.4 +4.3 99 +4  1032.1  -0.2  756  299           
06 14.10.18 тихо ()   0100 м  туман  ?/?  
+3.1 +3.1 100 +3  1032.1  -0.1  756  301  +2.6         
09 14.10.18 тихо ()   4800 м  в посл. час туман  ясно 
+9.7 +9.7 100 +10  1031.8  0.3  757  293           
12 14.10.18 180 (Ю) 20000 м  {туман}  ясно 
+17 +11.2 69 +21  1030  -1.1  756  285           
15 14.10.18 200 (Ю) 10 км    ясно 
+15.4 +10.9 75 +19  1029.1  -1  755  286           
18 14.10.18 тихо ()   2300 м  дымка  ясно 
+9.9 +9.3 96 +10  1029.4  -0.2  755  292    +17.8       
21 14.10.18 тихо ()   1300 м  дымка  ясно 
+7.8 +7.7 99 +8  1030.1  0.5  755  295           
00 15.10.18 130 (ЮВ) 1900 м  дымка{туман}  ясно 
+5.3 +5.3 100 +6  1029.9  -0.4  755  298           
06 15.10.18 140 (ЮВ) 9000 м  дымка{туман}  1/0 верхняя 
[Ci fib]
+4.5 +4.5 100 +5  1029.9  755  298  +2.8         
09 15.10.18 190 (Ю) 12000 м    3/0 верхняя 
[Ci fib]
+14 +7.4 64 +15  1029.6  0.5  755  288           
12 15.10.18 180 (Ю) 35000 м    8/0 верхняя 
[Ci]
+17.3 +6.9 50 +18  1028.5  -0.8  755  285           
15 15.10.18 170 (Ю) 9000 м  дым  8/0 верхняя 
[Ci fib]
+14.9 +7.4 61 +16  1027.7  -1  754  287           
18 15.10.18 160 (Ю) 14000 м    8/0 верхняя 
[Ci fib]
+10.6 +6.7 77 +12  1027.9  -0.1  754  291    +17.7       
21 15.10.18 150 (ЮВ) 18000 м    6/0 верхняя 
[Ci fib]
+8.6 +5.5 81 +9  1027.4  -0.7  753  293           
00 16.10.18 150 (ЮВ) 19000 м    6/0 верхняя 
[Ci fib]
+7.5 +4.2 80 +8  1027.5  753  295           
06 16.10.18 140 (ЮВ) 10 км    ясно 
+5.2 +3.5 89 +6  1027.2  -0.4  753  297  +4.1         
09 16.10.18 200 (Ю) 17000 м    1/0 верхняя 
[Ci sp]
+14 +6.2 59 +15  1026.5  0.1  753  288           
12 16.10.18 200 (Ю) 30000 м    ясно 
+18.9 +7.1 46 +20  1025.3  -0.8  752  282           
15 16.10.18 160 (Ю) 8000 м  дым  1/0 верхняя 
[Ci sp]
+14.9 +7.3 60 +16  1025.3  -0.3  752  286           
Время (UTC), дата Ветер
(°,м/с) 
Видим.   Явления Облачность Т
(°С)
Тd
(°С)
f(%) Тe
(°С)
Pmin
(гПа)
dP
(гПа)
Po
(мм)
O2
(г/м3)
Тmin Tmax R s Состояние
почвы

Для получения пояснительной информации подведите курсор к названию столбца.

ПОГОДА в Борисове - архив

Всё, что Вы хотите узнать о погоде в Борисове - удобно и подробно!

Выберите нужную дату (начиная с 1 января 2015* года) и нажмите кнопку "Найти".
Будут отображены архивные сводки погоды по пункту Борисов, начиная с указанной даты.


Отображать данные в формате CSV (для использования в таблицах Excel)


Внимание! Наш архив погоды предназначен исключительно для личного некоммерческого использования в познавательных целях. Если Вам необходимы официальные справки о состоянии погоды (для производственных, юридических, коммерческих и т.п. целей), обращайтесь в органы Росгидромета.

*Примечание: данная дата относится к архиву по метеостанциям СССР (Россия, СНГ, Балтия).
Архив по метеостанциям Зарубежной Европы и Азии (кроме Китая) хранится 10 дней, по другим регионам земного шара (Китай, Африка, Америка, Австралия, Океания) - 1 день.

Борисов - район местоположения метеостанции


Название, широта, долгота, высота метеостанции:
Борисов 54.3°ш. 28.5°д. 189 м над ур. моря [Беларусь]

Дополнительная информация

В oтличие oт бoльшинства пoгoдных сайтoв мы публикуем пoдрoбную метеoинфoрмацию в детальнoм прoфессиoнальнoм фoрмате.

Характеристики температуры и влажнoсти вoздуха измеряются на высoте 2 м в тени вдали oт зданий и деревьев.
Скoрoсть ветра измеряется на высoте 10 м (на урoвне рoста челoвека скoрoсть ветра ниже в 1.5-2 раза). Если метеoстанция нахoдится в гoрoде или в лесу, тo скoрoсть ветра занижена на 2-4 м/с пo сравнению с oткрытым местoм. Скoрoсть ветра над акватoриями крупных рек и oзёр, а также на вершинах хoлмoв на 2-5 м/с выше, чем в oбычных услoвиях.
Атмoсфернoе давление в разных тoчках местнoсти мoжет значительнo oтличаться oт давления на метеoстанции, в зависимoсти oт услoвий рельефа (при пoдъёме на 10 м давление пoнижается примернo на 1 мм рт.ст.).